CST,Max TemperatureF,Mean TemperatureF,Min TemperatureF,Max Dew PointF,MeanDew PointF,Min DewpointF,Max Humidity, Mean Humidity, Min Humidity, Max Sea Level PressureIn, Mean Sea Level PressureIn, Min Sea Level PressureIn, Max VisibilityMiles, Mean VisibilityMiles, Min VisibilityMiles, Max Wind SpeedMPH, Mean Wind SpeedMPH, Max Gust SpeedMPH,PrecipitationIn, CloudCover, Events, WindDirDegrees
2014-2-1,66,55,44,55,47,36,100,85,65,30.16,30.10,30.04,10,7,0,6,3,,0.00,7,Fog,86
2014-2-2,75,64,52,63,57,52,100,87,50,30.14,29.96,29.66,10,7,0,12,5,20,0.01,7,Fog,143
2014-2-3,64,58,51,63,57,46,100,89,77,30.10,29.91,29.65,10,8,1,10,6,,0.25,8,Rain,328
2014-2-4,73,62,50,64,57,46,100,93,73,30.12,29.99,29.59,10,5,0,9,5,17,0.02,7,Fog,112
2014-2-5,69,53,37,67,50,30,100,80,57,30.21,29.92,29.57,10,9,2,16,10,24,0.19,5,Rain,298
2014-2-6,39,36,33,34,29,24,93,75,58,30.31,30.25,30.19,10,9,5,13,8,,0.04,4,Rain,357
2014-2-7,57,44,30,39,33,28,92,71,44,30.31,30.24,30.17,10,8,4,10,5,,0.00,1,,16
2014-2-8,64,54,41,45,41,35,93,74,45,30.21,30.13,30.07,10,9,4,7,2,,0.06,2,Rain,14
2014-2-9,66,52,37,45,41,34,93,72,40,30.16,30.09,30.03,10,10,9,8,2,,0.00,0,,295
2014-2-10,66,54,41,55,47,39,100,88,63,30.13,30.08,30.03,10,5,0,8,1,,0.02,5,Fog-Rain,328
2014-2-11,52,47,42,50,46,40,97,92,89,30.12,30.07,30.02,10,7,2,14,7,,0.29,8,Rain,41
2014-2-12,42,39,36,40,38,33,100,95,89,30.09,29.91,29.76,10,4,2,22,12,29,2.07,8,Rain-Thunderstorm,45
2014-2-13,55,45,35,34,32,27,96,71,33,29.96,29.88,29.80,10,10,8,14,7,24,0.01,3,Rain,300
2014-2-14,60,45,30,48,39,30,96,72,36,30.00,29.88,29.72,10,9,2,15,5,45,0.08,2,Rain,226
2014-2-15,55,45,33,47,34,27,89,67,34,30.14,30.02,29.81,10,10,10,18,9,25,0.00,1,,312
2014-2-16,68,49,30,42,33,28,92,60,26,30.18,30.13,30.08,10,10,10,9,2,17,0.00,0,,264
2014-2-17,68,54,39,56,48,38,100,83,56,30.22,30.11,29.83,10,8,0,8,2,,0.00,5,Fog,202
2014-2-18,73,65,57,61,58,55,100,83,57,30.21,29.89,29.77,10,8,1,9,3,17,0.00,6,,198
2014-2-19,77,66,55,62,59,54,100,87,52,30.14,29.91,29.69,10,7,0,10,3,,0.00,5,Fog,210
2014-2-20,78,69,60,66,61,57,100,86,50,30.09,29.85,29.61,10,8,1,14,6,26,0.09,7,Rain,169
2014-2-21,68,58,46,66,51,28,97,76,25,30.05,29.85,29.55,10,7,1,21,8,34,1.16,5,Rain-Thunderstorm,300
2014-2-22,66,52,39,43,32,24,80,49,21,30.14,30.07,30.02,10,10,10,9,3,,0.00,0,,45
2014-2-23,61,54,46,60,54,39,100,91,71,30.09,30.00,29.94,10,7,0,12,2,,0.18,7,Fog-Rain,175
2014-2-24,73,65,53,61,54,46,100,77,41,30.12,29.91,29.70,10,8,0,12,5,,0.01,4,Fog,339
2014-2-25,75,60,46,54,48,42,90,67,40,30.04,29.82,29.60,10,10,10,9,2,,0.00,3,,316
2014-2-26,57,48,37,54,44,26,100,85,60,29.96,29.84,29.53,10,7,2,14,5,22,0.44,7,Rain,347
2014-2-27,54,42,30,27,19,11,79,46,18,30.03,29.98,29.93,10,10,10,10,7,18,0.00,0,,334
2014-2-28,60,43,26,35,24,19,85,50,21,30.12,30.06,30.00,10,10,10,9,3,,0.00,0,,106